Stations météo

réclame
Mon MeteoGroup
Gelbelsee, Allemagne (10777): Température de l'air & dewpoint: 12.08.2018 02:00:00 - 18.08.2018 02:00:00 (CEST)Gelbelsee, Allemagne (10777): Température de l'air 5cm & Température de l'air -5cm: 12.08.2018 02:00:00 - 18.08.2018 02:00:00 (CEST)Gelbelsee, Allemagne (10777): Température de l'air -20cm & Température de l'air -100cm: 12.08.2018 02:00:00 - 18.08.2018 02:00:00 (CEST)Gelbelsee, Allemagne (10777): Vitesse du vent & gusts: 12.08.2018 02:00:00 - 18.08.2018 02:00:00 (CEST)Gelbelsee, Allemagne (10777): Direction du vent: 12.08.2018 02:00:00 - 18.08.2018 02:00:00 (CEST)Gelbelsee, Allemagne (10777): reduced air pressure: 12.08.2018 02:00:00 - 18.08.2018 02:00:00 (CEST)Gelbelsee, Allemagne (10777): visibility: 12.08.2018 02:00:00 - 18.08.2018 02:00:00 (CEST)Gelbelsee, Allemagne (10777): Ensoleillement: 12.08.2018 02:00:00 - 18.08.2018 02:00:00 (CEST)Gelbelsee, Allemagne (10777): Quantités de précipitations: 12.08.2018 02:00:00 - 18.08.2018 02:00:00 (CEST)
Date & Time tt [°C] td [°C] tt 5cm [°C] tt -5cm [°C] tt -20cm [°C] tt -100cm [°C] ff [km/h] ff [knt] fx [km/h] fx [knt] dd ppp [hPa] vv [km] sd [min] rr [mm]
18.08.2018 02:00:00 20,1 12,3 18,8 21,5 24,1 19,2 15 8 24 13 NNW 1016,9 43 0 0,0
18.08.2018 01:00:00 20,4 12,0 18,6 22,0 24,5 19,2 14 7 20 11 NNW 1016,6 37 0 0,0
18.08.2018 00:00:00 20,6 11,9 18,7 22,7 24,9 19,2 11 6 19 10 NNW 1016,3 51 0 0,0
17.08.2018 23:00:00 20,7 12,1 18,3 23,6 25,3 19,2 8 5 19 10 NNW 1016,1 45 0 0,0
17.08.2018 22:00:00 22,7 12,0 20,2 24,6 25,6 19,2 10 5 18 10 NW 1015,3 47 0 0,0
17.08.2018 21:00:00 23,0 11,2 20,4 26,2 25,9 19,2 12 7 21 11 W 1014,5 41 0 0,0
17.08.2018 20:00:00 25,4 9,0 21,8 28,3 25,9 19,3 2 1 5 3 W 1013,5 48 30 0,0
17.08.2018 19:00:00 27,7 8,4 26,3 29,7 25,8 19,3 4 2 14 8 NE 1012,6 48 49 0,0
17.08.2018 18:00:00 28,7 7,9 30,2 31,2 25,5 19,3 5 3 14 7 SW 1012,4 51 44 0,0
17.08.2018 17:00:00 28,5 8,0 31,3 32,3 24,9 19,3 11 6 19 11 NE 1012,5 45 49 0,0
17.08.2018 16:00:00 28,1 8,9 32,4 32,7 24,2 19,3 12 6 24 13 SE 1012,9 29 60 0,0
17.08.2018 15:00:00 27,9 8,3 32,5 32,3 23,4 19,3 7 4 20 11 N 1013,3 19 54 0,0
17.08.2018 14:00:00 28,2 9,9 33,9 32,2 22,6 19,3 5 3 19 10 SSW 1013,4 19 60 0,0
17.08.2018 13:00:00 26,5 9,1 31,6 30,6 21,9 19,3 5 3 19 10 SSW 1014,0 36 60 0,0
17.08.2018 12:00:00 25,7 9,9 32,1 28,3 21,2 19,3 5 3 15 8 NE 1014,2 23 60 0,0
17.08.2018 11:00:00 24,8 9,5 29,2 25,8 20,8 19,3 6 3 13 7 SE 1014,4 32 60 0,0
17.08.2018 10:00:00 23,5 12,1 26,6 22,7 20,6 19,3 6 3 15 8 SE 1014,4 34 60 0,0
17.08.2018 09:00:00 21,0 11,3 22,6 19,9 20,7 19,3 10 6 14 8 SE 1014,9 19 60 0,0
17.08.2018 08:00:00 19,8 11,7 20,1 17,9 20,9 19,3 3 2 7 4 SE 1014,8 50 60 0,0
17.08.2018 07:00:00 16,8 10,5 14,3 16,6 21,2 19,2 5 3 9 5 E 1015,1 43 18 0,0
17.08.2018 06:00:00 15,7 10,3 11,0 17,0 21,6 19,2 3 2 8 5 ENE 1015,1 49 0 0,0
17.08.2018 05:00:00 16,6 10,4 11,4 17,5 21,9 19,3 7 4 9 5 E 1014,8 41 0 0,0
17.08.2018 04:00:00 16,6 10,5 12,1 18,1 22,3 19,3 4 2 8 4 NE 1015,0 51 0 0,0
17.08.2018 03:00:00 17,9 10,8 12,3 18,7 22,8 19,3 4 2 6 3 ESE 1014,8 61 0 0,0
17.08.2018 02:00:00 17,9 11,0 12,7 19,5 23,2 19,3 4 2 6 4 E 1015,0 47 0 0,0
17.08.2018 01:00:00 19,7 10,9 13,6 20,3 23,6 19,3 4 2 6 4 SE 1014,9 50 0 0,0
17.08.2018 00:00:00 19,5 11,1 13,9 21,2 24,1 19,3 4 2 5 3 ESE 1015,0 48 0 0,0
16.08.2018 23:00:00 20,0 11,2 14,6 22,3 24,5 19,3 5 3 6 4 E 1014,5 40 0 0,0
16.08.2018 22:00:00 21,0 11,6 15,7 23,7 24,8 19,3 4 2 6 3 E 1014,5 48 0 0,0
16.08.2018 21:00:00 22,7 11,6 19,1 25,6 25,0 19,3 5 3 10 5 E 1014,0 46 17 0,0
16.08.2018 20:00:00 25,0 11,3 23,0 27,6 25,0 19,3 8 5 16 9 ESE 1013,4 46 60 0,0
16.08.2018 19:00:00 26,1 11,2 26,3 29,3 24,8 19,3 9 5 18 10 SE 1013,3 45 60 0,0
16.08.2018 18:00:00 26,6 10,4 28,6 30,6 24,3 19,4 7 4 20 11 E 1013,5 41 60 0,0
16.08.2018 17:00:00 27,0 10,9 30,2 31,2 23,8 19,4 10 6 20 11 ESE 1013,6 31 59 0,0
16.08.2018 16:00:00 26,8 10,7 30,6 31,4 23,0 19,4 12 7 24 13 E 1014,0 22 60 0,0
16.08.2018 15:00:00 26,5 11,5 30,9 31,1 22,3 19,4 12 7 22 12 E 1014,8 19 59 0,0
16.08.2018 14:00:00 25,1 10,2 30,1 30,4 21,4 19,4 10 6 28 15 SE 1015,5 19 60 0,0
16.08.2018 13:00:00 24,9 11,2 30,1 29,1 20,7 19,4 11 6 22 12 SE 1016,0 25 57 0,0
16.08.2018 12:00:00 23,4 11,4 25,7 27,1 20,1 19,4 11 6 21 11 ESE 1016,8 38 58 0,0
16.08.2018 11:00:00 23,1 13,4 27,3 24,5 19,6 19,4 9 5 16 9 SE 1017,2 22 60 0,0
16.08.2018 10:00:00 21,3 13,6 24,0 21,5 19,4 19,4 9 5 12 6 SE 1017,8 19 60 0,0
16.08.2018 09:00:00 19,1 12,9 21,0 18,6 19,4 19,4 8 4 13 7 SE 1018,3 19 60 0,0
16.08.2018 08:00:00 17,8 12,1 18,3 16,6 19,6 19,4 6 4 10 6 ESE 1018,7 21 60 0,0
16.08.2018 07:00:00 16,2 11,1 13,8 15,4 19,8 19,4 6 3 8 4 E 1019,0 38 13 0,0
16.08.2018 06:00:00 16,0 11,2 11,6 15,6 20,1 19,4 6 3 8 4 E 1018,9 30 0 0,0
16.08.2018 05:00:00 15,4 11,2 11,0 16,0 20,5 19,4 2 1 4 2 NE 1019,3 32 0 0,0
16.08.2018 04:00:00 15,7 11,6 11,4 16,5 20,8 19,4 3 2 7 4 E 1019,5 30 0 0,0
16.08.2018 03:00:00 15,8 11,5 11,8 17,1 21,1 19,4 3 1 9 5 E 1019,9 32 0 0,0
16.08.2018 02:00:00 16,0 11,7 12,0 17,7 21,5 19,4 4 2 8 4 ENE 1020,1 41 0 0,0
16.08.2018 01:00:00 17,2 11,6 14,1 18,4 21,9 19,5 6 3 11 6 E 1020,0 39 0 0,0
16.08.2018 00:00:00 18,0 11,7 14,5 19,2 22,2 19,5 5 3 8 4 NE 1019,9 47 0 0,0
15.08.2018 23:00:00 18,4 11,7 15,0 20,1 22,6 19,5 6 3 10 5 NNE 1019,7 49 0 0,0
15.08.2018 22:00:00 18,2 11,6 14,9 21,2 22,9 19,5 6 4 9 5 N 1019,6 59 0 0,0
15.08.2018 21:00:00 19,2 11,6 15,7 22,7 23,0 19,5 6 3 10 5 N 1019,1 70 11 0,0
15.08.2018 20:00:00 22,0 11,0 20,7 24,6 23,0 19,5 7 4 18 10 NW 1018,2 60 60 0,0
15.08.2018 19:00:00 23,2 11,0 23,9 26,1 22,7 19,5 9 5 18 10 NNW 1017,9 54 60 0,0
15.08.2018 18:00:00 23,4 11,0 26,2 27,1 22,4 19,5 12 6 27 15 NNW 1018,1 37 44 0,0
15.08.2018 17:00:00 23,2 11,5 25,1 27,2 22,0 19,5 12 7 20 11 NNW 1018,1 63 22 0,0
15.08.2018 16:00:00 23,1 11,5 26,2 28,0 21,3 19,6 11 6 28 15 NNW 1018,3 42 34 0,0
15.08.2018 15:00:00 23,7 11,8 30,6 27,7 20,7 19,5 12 7 27 15 W 1018,5 20 59 0,0
15.08.2018 14:00:00 22,2 11,7 26,6 25,1 20,3 19,6 13 7 21 11 NNW 1019,0 32 30 0,0
15.08.2018 13:00:00 20,5 12,5 22,9 24,0 19,8 19,6 13 7 25 14 NNW 1019,6 29 11 0,0
15.08.2018 12:00:00 20,6 12,1 24,4 23,1 19,4 19,6 14 8 22 12 NW 1019,8 27 16 0,0
15.08.2018 11:00:00 20,2 14,4 25,2 22,4 19,0 19,6 8 5 16 9 W 1019,8 21 34 0,0
15.08.2018 10:00:00 18,5 13,6 24,2 20,0 18,9 19,6 8 4 15 8 WNW 1020,0 20 53 0,0
15.08.2018 09:00:00 16,6 13,6 19,5 16,9 18,9 19,6 6 3 12 6 W 1020,1 17 10 0,0
15.08.2018 08:00:00 15,8 13,3 17,8 15,8 19,0 19,6 8 4 12 6 WNW 1020,0 22 13 0,0
15.08.2018 07:00:00 14,0 12,6 12,9 15,6 19,2 19,6 6 3 9 5 W 1020,2 16 0 0,0
15.08.2018 06:00:00 14,6 12,7 13,9 15,9 19,4 19,6 7 4 11 6 SW 1019,6 18 0 0,0
15.08.2018 05:00:00 15,5 12,8 14,2 15,7 19,6 19,6 6 4 14 7 NNW 1019,3 21 0 0,0
15.08.2018 04:00:00 15,4 12,5 13,0 15,6 19,9 19,6 9 5 14 8 NW 1019,3 26 0 0,0
15.08.2018 03:00:00 15,1 12,4 12,7 16,0 20,2 19,6 9 5 15 8 WNW 1019,0 31 0 0,0
15.08.2018 02:00:00 16,1 12,6 13,4 16,6 20,4 19,6 9 5 16 8 W 1018,6 38 0 0,0
15.08.2018 01:00:00 16,7 12,5 14,1 17,3 20,7 19,6 9 5 16 9 W 1018,3 38 0 0,0
15.08.2018 00:00:00 17,4 12,4 15,6 18,0 20,9 19,6 8 5 14 7 WNW 1017,9 47 0 0,0
14.08.2018 23:00:00 18,0 12,4 16,3 18,5 21,1 19,6 6 4 14 8 W 1017,6 47 0 0,0
14.08.2018 22:00:00 18,3 12,4 17,0 19,0 21,3 19,7 8 4 11 6 WNW 1017,3 59 0 0,0
14.08.2018 21:00:00 18,5 12,3 16,8 19,6 21,5 19,7 6 3 13 7 NW 1016,9 69 0 0,0
14.08.2018 20:00:00 19,4 12,0 18,7 20,6 21,5 19,7 8 5 23 13 NW 1015,7 70 0 0,0
14.08.2018 19:00:00 20,4 11,7 20,3 21,7 21,5 19,7 20 11 28 15 NNW 1015,1 69 16 0,0
14.08.2018 18:00:00 20,8 10,9 21,5 22,3 21,4 19,7 14 8 34 18 NNW 1014,8 67 3 0,0
14.08.2018 17:00:00 21,5 10,9 22,9 22,7 21,2 19,7 17 9 29 16 W 1014,3 56 22 0,0
14.08.2018 16:00:00 21,2 11,4 24,4 22,6 21,1 19,7 14 8 33 18 NW 1014,3 51 17 0,0
14.08.2018 15:00:00 21,2 11,2 25,4 22,0 20,9 19,7 17 9 32 17 WNW 1014,4 54 11 0,0
14.08.2018 14:00:00 20,8 11,7 24,2 21,8 20,7 19,7 15 8 31 17 W 1014,1 47 16 0,0
14.08.2018 13:00:00 19,6 12,1 21,8 22,0 20,5 19,7 14 7 33 18 WNW 1014,4 70 23 0,0
14.08.2018 12:00:00 19,8 13,3 24,7 22,4 20,2 19,7 18 10 31 17 W 1014,2 45 43 0,0
14.08.2018 11:00:00 18,7 13,8 24,0 20,9 20,0 19,7 18 10 29 16 W 1014,3 18 35 0,0
14.08.2018 10:00:00 17,0 13,9 19,2 19,8 19,9 19,7 9 5 25 14 WNW 1014,6 44 37 0,0
14.08.2018 09:00:00 16,4 14,0 19,5 18,6 20,0 19,7 12 6 19 11 W 1014,4 27 56 0,0
14.08.2018 08:00:00 15,4 14,1 16,4 16,4 20,1 19,7 6 3 10 5 W 1014,0 31 19 0,0
14.08.2018 07:00:00 14,7 13,9 13,5 16,0 20,3 19,7 4 2 10 5 W 1013,6 28 7 0,0
14.08.2018 06:00:00 14,8 14,2 13,7 16,3 20,6 19,7 4 2 11 6 WSW 1012,9 20 0 0,0
14.08.2018 05:00:00 15,2 14,4 13,8 16,6 20,9 19,7 7 4 13 7 W 1012,3 26 0 0,0
14.08.2018 04:00:00 15,3 14,5 14,2 17,0 21,2 19,7 8 4 14 8 W 1012,3 27 0 0,0
14.08.2018 03:00:00 15,1 14,4 14,1 17,1 21,5 19,7 5 3 14 8 W 1012,2 44 0 0,0
14.08.2018 02:00:00 15,6 14,5 14,7 17,6 21,9 19,7 9 5 15 8 SW 1012,2 57 0 0,0
14.08.2018 01:00:00 15,9 15,2 15,0 18,3 22,2 19,7 10 5 14 7 SW 1011,9 30 0 0,0
14.08.2018 00:00:00 16,3 15,7 15,7 19,0 22,5 19,7 7 4 9 5 SSW 1011,8 19 0 0,0
13.08.2018 23:00:00 16,9 16,6 16,5 19,9 22,8 19,8 5 3 16 8 S 1011,3 5 0 6,3
13.08.2018 22:00:00 17,3 16,3 16,9 20,8 23,1 19,8 7 4 10 5 WSW 1012,0 3,5 0 0,0
13.08.2018 21:00:00 17,6 16,5 16,9 21,4 23,4 19,8 7 4 13 7 SSE 1010,8 15 0 0,0
13.08.2018 20:00:00 18,2 16,6 17,8 22,4 23,7 19,8 8 5 13 7 SSE 1010,2 23 0 0,1
13.08.2018 19:00:00 18,5 16,3 18,1 23,3 23,9 19,8 6 3 9 5 SSE 1010,3 33 0 0,0
13.08.2018 18:00:00 18,7 16,1 18,5 24,5 24,0 19,8 4 2 29 16 SSW 1010,4 45 0 1,3
13.08.2018 17:00:00 23,4 11,9 24,0 26,9 23,8 19,8 16 9 29 15 WNW 1009,2 70 0 0,0
13.08.2018 16:00:00 24,2 12,4 26,2 27,5 23,6 19,8 16 9 31 17 NW 1008,6 63 0 0,0
13.08.2018 15:00:00 25,5 12,3 28,6 28,7 23,1 19,8 19 10 38 20 NW 1009,0 36 21 0,0
13.08.2018 14:00:00 26,8 12,1 30,3 28,9 22,6 19,8 13 7 37 20 NW 1008,6 57 24 0,0
13.08.2018 13:00:00 27,6 11,7 34,6 28,1 22,2 19,8 19 10 34 19 NNW 1008,4 24 51 0,0
13.08.2018 12:00:00 24,8 14,1 27,3 25,7 21,8 19,8 9 5 24 13 SSW 1009,1 59 12 0,0
13.08.2018 11:00:00 24,4 12,9 28,1 25,7 21,4 19,8 12 6 23 12 SSW 1009,2 48 48 0,0
13.08.2018 10:00:00 23,6 13,0 27,2 23,4 21,2 19,8 11 6 19 10 SSW 1009,2 32 60 0,0
13.08.2018 09:00:00 21,5 13,3 24,1 20,8 21,2 19,8 8 5 11 6 SSE 1009,6 36 60 0,0
13.08.2018 08:00:00 18,9 12,8 20,3 19,0 21,4 19,8 5 3 8 5 SSE 1010,2 28 59 0,0
13.08.2018 07:00:00 16,9 12,1 16,2 17,7 21,7 19,8 6 3 8 4 S 1010,9 35 35 0,0
13.08.2018 06:00:00 16,7 12,0 12,4 18,0 22,0 19,8 5 3 9 5 S 1011,0 38 0 0,0
13.08.2018 05:00:00 17,7 11,9 13,7 18,5 22,3 19,9 6 3 12 7 SSE 1010,7 43 0 0,0
13.08.2018 04:00:00 18,7 12,1 13,5 18,9 22,7 19,9 6 3 12 7 SSW 1011,0 48 0 0,0
13.08.2018 03:00:00 19,4 11,9 14,8 19,5 23,0 19,9 6 3 10 5 SSW 1011,2 47 0 0,0
13.08.2018 02:00:00 18,9 11,3 13,4 20,1 23,4 19,9 4 2 6 4 SSW 1011,8 54 0 0,0
13.08.2018 01:00:00 18,6 10,9 13,9 20,8 23,7 19,9 4 2 9 5 SE 1012,1 56 0 0,0
13.08.2018 00:00:00 20,1 10,8 14,5 21,7 24,1 19,9 5 3 9 5 ESE 1012,0 48 0 0,0
12.08.2018 23:00:00 20,7 10,8 16,1 22,6 24,5 19,9 8 4 9 5 SE 1012,3 64 0 0,0
12.08.2018 22:00:00 21,2 11,1 15,6 23,9 24,8 19,9 5 3 5 3 ESE 1012,3 70 0 0,0
12.08.2018 21:00:00 22,9 10,6 16,9 25,8 24,9 19,9 4 2 6 3 ESE 1011,8 70 27 0,0
12.08.2018 20:00:00 25,7 9,4 22,3 27,8 24,9 19,9 3 2 12 6 S 1011,3 70 59 0,0
12.08.2018 19:00:00 27,2 9,1 27,7 29,5 24,6 20,0 6 3 15 8 SSW 1011,4 70 60 0,0
12.08.2018 18:00:00 27,3 8,4 29,1 30,4 24,2 20,0 9 5 22 12 SSW 1011,9 48 60 0,0
12.08.2018 17:00:00 27,5 6,4 30,7 30,7 23,6 20,0 5 3 19 10 SSW 1012,7 39 60 0,0
12.08.2018 16:00:00 27,3 6,0 31,5 30,7 23,0 20,0 9 5 22 12 SSW 1013,3 29 60 0,0
12.08.2018 15:00:00 26,0 6,8 31,1 30,0 22,2 20,0 9 5 26 14 ESE 1014,2 23 60 0,0
12.08.2018 14:00:00 25,0 7,2 31,2 29,6 21,5 20,0 12 6 33 18 SE 1015,1 33 60 0,0
12.08.2018 13:00:00 23,7 7,3 28,9 27,9 20,8 20,0 10 6 22 12 E 1016,3 24 60 0,0
12.08.2018 12:00:00 23,0 7,0 27,9 25,7 20,2 20,0 12 6 24 13 ESE 1017,1 23 60 0,0
12.08.2018 11:00:00 22,2 7,8 26,1 23,4 19,9 20,0 13 7 22 12 ESE 1017,5 34 60 0,0
12.08.2018 10:00:00 19,9 7,9 24,2 20,8 19,7 20,0 10 5 17 9 SE 1018,4 45 60 0,0
12.08.2018 09:00:00 18,3 8,1 20,8 18,3 19,7 20,0 9 5 16 8 SE 1018,9 45 60 0,0
12.08.2018 08:00:00 16,4 7,8 17,3 16,1 19,8 20,0 6 3 9 5 E 1019,6 59 60 0,0
12.08.2018 07:00:00 14,9 7,2 12,8 14,7 20,1 20,0 4 2 6 3 E 1020,1 67 25 0,0
12.08.2018 06:00:00 11,8 6,7 7,3 14,9 20,5 20,0 4 2 5 3 N 1021,0 70 0 0,0
12.08.2018 05:00:00 12,3 6,7 7,5 15,4 20,8 20,0 0 0 4 2 N 1021,3 61 0 0,0
12.08.2018 04:00:00 13,1 6,6 8,5 15,9 21,2 20,0 4 2 5 3 N 1021,8 70 0 0,0
12.08.2018 03:00:00 13,4 6,1 8,3 16,5 21,5 20,0 5 3 7 4 N 1022,1 70 0 0,0
12.08.2018 02:00:00 13,8 6,8 8,7 17,1 21,9 20,0 5 3 5 3 N 1022,4 47 0 0,0

tt = Température de l'air
td = dewpoint
tt 5cm = Température de l'air 5cm
tt -5cm = Température de l'air -5cm
tt -20cm = Température de l'air -20cm
tt -100cm = Température de l'air -100cm
ff = Vitesse du vent
fx = gusts
dd = Direction du vent
ppp = reduced air pressure
vv = visibility
sd = Ensoleillement
rr = Quantités de précipitations

stations d'obs. à proximité